This is the latest recevied weather packets stored in our database for station/object KP4OZ. If no packets are shown the sender has not sent any weather packets the latest 10 day(s).
| Time | Temp. | Humidity | Pressure | Rain* | Wind** | Luminosity | Snow |
|---|---|---|---|---|---|---|---|
| 1778002105 | 33.89° C | 51% | 1017 hPa | 0 mm | - | - | - |
| 1778001803 | 33.89° C | 51% | 1017.1 hPa | 0 mm | - | - | - |
| 1778001502 | 33.89° C | 53% | 1017 hPa | 0 mm | - | - | - |
| 1778001199 | 34.44° C | 51% | 1016.8 hPa | 0 mm | - | - | - |
| 1778000895 | 33.89° C | 51% | 1017.1 hPa | 0 mm | - | - | - |
| 1778000592 | 33.89° C | 50% | 1017 hPa | 0 mm | - | - | - |
| 1778000288 | 33.89° C | 50% | 1017.1 hPa | 0 mm | - | - | - |
| 1777999983 | 33.89° C | 52% | 1017.2 hPa | 0 mm | - | - | - |
| 1777999679 | 33.89° C | 52% | 1017.1 hPa | 0 mm | - | - | - |
| 1777999376 | 33.89° C | 50% | 1017.4 hPa | 0 mm | - | - | - |
| 1777999075 | 33.89° C | 52% | 1017.3 hPa | 0 mm | - | - | - |
| 1777998773 | 33.89° C | 51% | 1017.3 hPa | 0 mm | - | - | - |
| 1777998470 | 33.89° C | 50% | 1017.2 hPa | 0 mm | - | - | - |
| 1777998167 | 33.89° C | 52% | 1017.4 hPa | 0 mm | - | - | - |
| 1777997864 | 34.44° C | 51% | 1017.2 hPa | 0 mm | - | - | - |
| 1777997562 | 33.33° C | 52% | 1017.3 hPa | 0 mm | - | - | - |
| 1777997259 | 33.33° C | 51% | 1017.2 hPa | 0 mm | - | - | - |
| 1777996957 | 33.89° C | 53% | 1017.5 hPa | 0 mm | - | - | - |
| 1777996652 | 33.33° C | 53% | 1017.3 hPa | 0 mm | - | - | - |
| 1777996349 | 33.33° C | 54% | 1017.4 hPa | 0 mm | - | - | - |
| 1777996045 | 33.33° C | 54% | 1017.4 hPa | 0 mm | - | - | - |
| 1777995741 | 33.33° C | 53% | 1017.4 hPa | 0 mm | - | - | - |
| 1777995438 | 33.33° C | 53% | 1017.3 hPa | 0 mm | - | - | - |
| 1777995135 | 32.78° C | 53% | 1017.6 hPa | 0 mm | - | - | - |
| 1777994832 | 33.33° C | 55% | 1017.3 hPa | 0 mm | - | - | - |
* Rain latest hour (hover to see other rain measurements)
** Current wind speed in m/s (hover to see current wind gust speed)